User: anonymous   Login
Location: Unspecified
(0.0000°N, 0.0000°E)
Time: 06:09:26
(UTC+00:00)
Language:

USA 67 - Orbit

View from above orbital plane
View from above orbital plane
View from above satellite
View from above satellite

Ground track
Ground track

The orbit data is extracted from the following two-line orbital elements,

1 20963U 90097B   17287.08923676 0.00000000  00000-0  00000-0 0    04
2 20963  16.6202   2.8301 0017691 214.9534 144.9424  0.98580288    01
Epoch (UTC): 14 October 2017 02:08:30
Eccentricity: 0.0017691
inclination: 16.6202°
perigee height: 36192 km
apogee height: 36342 km
right ascension of ascending node: 2.8301°
argument of perigee: 214.9534°
revolutions per day: 0.98580288
mean anomaly at epoch: 144.9424°
orbit number at epoch: 0

The dashed part of the orbit path shows where the satellite is in the earth's shadow,  

DLR